Lexington Weather

Lexington, Massachusetts, USA

48°F
10/22/2019 3:09am 
  • Lexington Conditions: Haze, Overcast
  • Temperature: 47.5°F / 8.6°CWarmer 1.3°F than last hour.
  • Dew Point: 46.0°FIncreased 1.4°Fsince last hour.
  • Relative Humidity: 95%Increased 1.0% since last hour.
  • Wind: Calm, 10-min avg: Calm, gust: None
  • Barometer: 30.12 in Steady
  • Visibility: 1½ miles
  • Rain Today: 0.00 in
  •   

Regional Weather Roundup
for Boston, MA

        
000
ASUS41 KBOX 212201
RWRBOX

REGIONAL WEATHER ROUNDUP
NATIONAL WEATHER SERVICE BOSTON/NORTON MA
600 PM EDT MON OCT 21 2019

NOTE:  "FAIR" INDICATES FEW OR NO CLOUDS BELOW 12,000 FEET WITH NO 
SIGNIFICANT WEATHER AND/OR OBSTRUCTIONS TO VISIBILITY.

MAZALL-212300-
EASTERN MASSACHUSETTS
  
CITY           SKY/WX    TMP DP  RH WIND       PRES   REMARKS
BOSTON         FAIR      56  48  74 E6        30.14R                  
BEVERLY        FAIR      55  43  63 N5        30.14R                  
LAWRENCE       FAIR      56  43  61 E3        30.16R                  
BEDFORD        FAIR      59  39  47 E5        30.12R                  
BLUE HILL      NOT AVBL                                               
NORWOOD        FAIR      56  43  61 E3        30.13R                  
MARSHFIELD     NOT AVBL                                               
PLYMOUTH       FAIR      53  48  83 N7        30.12R                  
TAUNTON        FAIR      56  45  66 N3        30.12R                  
NEW BEDFORD    FAIR      55  45  68 N6        30.11R                  
$$

MAZALL-212300-
CAPE COD AND THE ISLANDS
  
CITY           SKY/WX    TMP DP  RH WIND       PRES   REMARKS
FALMOUTH       CLEAR     54  48  82 NE9       30.11R                  
HYANNIS        NOT AVBL                                               
CHATHAM        NOT AVBL                                               
PROVINCETOWN   FAIR      54  51  90 NE10        N/A                   
NANTUCKET      FAIR      54  51  90 N17       30.08R                  
MARTHAS VNYRD  FAIR      55  47  74 N12       30.10R                  
$$
 
MAZALL-212300-
CENTRAL AND WESTERN MASSACHUSETTS
  
CITY           SKY/WX    TMP DP  RH WIND       PRES   REMARKS
WORCESTER      FAIR      56  46  69 E6        30.12R                  
FITCHBURG      FAIR      60  45  57 SE7       30.13R                  
ORANGE         FAIR      60  46  59 E5        30.12R                  
SPRINGFIELD    PTCLDY    61  46  57 N5        30.10R                  
WESTFIELD      FAIR      60  46  59 NE3       30.10R                  
NORTH ADAMS    FAIR      57  46  66 W3        30.11R                  
PITTSFIELD     FAIR      58  46  64 CALM      30.09R                  
$$
 
RIZALL-212300-
RHODE ISLAND
  
CITY           SKY/WX    TMP DP  RH WIND       PRES   REMARKS
PROVIDENCE     FAIR      57  44  62 NE8       30.12R                  
NEWPORT        FAIR      58  43  57 N6        30.11R                  
BLOCK ISLAND   FAIR      58  46  64 NE10G17   30.10R                  
SMITHFIELD     FAIR     N/A N/A N/A E6        30.13R                  
WESTERLY       FAIR      63  44  50 NE5       30.10R                  
$$
 
CTZALL-212300-
CONNECTICUT
  
CITY           SKY/WX    TMP DP  RH WIND       PRES   REMARKS
BRADLEY INTL   FAIR      63  48  58 N5        30.10R                  
HARTFORD       FAIR      61  49  64 NE5       30.09R                  
BRIDGEPORT     FAIR      60  50  69 CALM      30.09R                  
DANBURY        FAIR      58  44  60 CALM      30.10R                  
GROTON         NOT AVBL                                               
NEW HAVEN      FAIR      61  51  70 CALM      30.09R                  
CHESTER        FAIR      63  45  51 CALM      30.10R                  
MERIDEN        FAIR      57  49  74 CALM      30.09R                  
WILLIMANTIC    FAIR      62  47  57 NE5       30.12R                  
OXFORD         FAIR      61  46  57 E5        30.11R                  
$$

MEZ002-015-021-024-NHZ003-005-008-011-012-014-VTZ005-008-212300-
NORTHERN NEW ENGLAND
  
CITY           SKY/WX    TMP DP  RH WIND       PRES   REMARKS
PORTLAND ME    FAIR      54  45  71 S6        30.14R                  
BANGOR ME      FAIR      53  44  71 CALM      30.14R                  
CONCORD NH     FAIR      57  48  72 CALM      30.12R                  
MANCHESTER NH  FAIR      60  47  61 SE8       30.12R                  
NASHUA NH      FAIR      60  48  64 SE6       30.13R                  
PORTSMOUTH NH  CLEAR     53  48  83 SE5       30.13R                  
JAFFREY NH     FAIR      54  46  74 CALM      30.14R                  
KEENE NH       FAIR      56  51  84 CALM      30.13R                  
BURLINGTON VT  FAIR      57  43  59 N5        30.13S                  
MT. WASHINGTON PTCLDY    43   3  19 N10         N/A                   
$$

NYZ052-076-212300-
EASTERN NEW YORK
  
CITY           SKY/WX    TMP DP  RH WIND       PRES   REMARKS
ALBANY         FAIR      57  47  69 CALM      30.12R                  
NEW YORK CITY  FAIR      66  43  43 E8        30.08R                  
$$
 
ANZALL-212300-
MARINE OBSERVATIONS
  
STATION/POSITION TIME  TEMP    WIND        PRES    VSBY  WAVE
                       AIR SEA DIR/SP/G                  HT/PER
                 (UTC) (F)     (DEG/KT/KT) (MB)    (MI)  (FT/S)
BOSTON BUOY      2050   56 57   40/ 10/ 12 1018.7          3/ 5
BUZZARDS BAY     2100   58      30/ 17/ 19 1018.8R
NANTUCKET SOUND  2140      57              1018.9R
MASS BAY-STELLWA 2104   56 56   50/ 10/ 12 1019.0R  1 7/8  3/ 5
ISLE OF SHOALS   2100   54     100/ 11/ 12 1019.3R
S OF BLOCK IS    2130      60                N/A           8/ 8
$$

......................KEY.........................
  SKY/WX - SKY CONDITION/PRESENT WEATHER
  TMP    - TEMPERATURE IN FAHRENHEIT
  DWPT   - DEWPOINT IN FAHRENHEIT
  RH     - RELATIVE HUMIDITY IN PERCENT
  WIND   - DIRECTION AND SPEED IN MPH
  PRES   - MEAN SEA LEVEL PRESSURE IN INCHES OF HG
  WCI    - WIND CHILL INDEX
  VSB    - VISIBILITY IN MILES
  HX     - HEAT INDEX
  TC     - TEMPERATURE IN CELSIUS
  VRB    - VARIABLE WIND DIRECTION
  N/A    - NOT AVAILABLE
  
      

Other recent Regional Weather Roundups

Tue Oct 22, 2:10am

Tue Oct 22, 2:00am

Tue Oct 22, 1:10am

Tue Oct 22, 1:00am

Tue Oct 22, 12:10am

Tue Oct 22, 12:00am

Mon Oct 21, 11:10pm

Mon Oct 21, 11:00pm

Mon Oct 21, 10:10pm

Mon Oct 21, 10:01pm

Mon Oct 21, 9:10pm

Mon Oct 21, 9:00pm

Mon Oct 21, 8:10pm

Mon Oct 21, 8:00pm

Mon Oct 21, 7:10pm

Mon Oct 21, 7:01pm

Mon Oct 21, 6:10pm

Mon Oct 21, 5:10pm

Mon Oct 21, 5:01pm

Mon Oct 21, 4:10pm

Mon Oct 21, 4:00pm

Mon Oct 21, 3:10pm

Mon Oct 21, 3:01pm

Mon Oct 21, 2:10pm

Mon Oct 21, 2:00pm

Mon Oct 21, 1:10pm

Mon Oct 21, 1:01pm

Mon Oct 21, 12:10pm

Mon Oct 21, 12:00pm

Mon Oct 21, 11:10am

Mon Oct 21, 11:00am

Mon Oct 21, 10:10am

Mon Oct 21, 10:00am

Mon Oct 21, 9:10am

Mon Oct 21, 9:00am

Mon Oct 21, 7:10am

Mon Oct 21, 7:00am

Mon Oct 21, 6:10am

Mon Oct 21, 6:00am

Mon Oct 21, 5:10am

Mon Oct 21, 5:00am

Mon Oct 21, 4:10am

Mon Oct 21, 4:00am

Mon Oct 21, 3:10am

Mon Oct 21, 3:00am

Mon Oct 21, 2:10am

Mon Oct 21, 2:01am

Mon Oct 21, 1:10am

Mon Oct 21, 1:00am

Mon Oct 21, 12:10am

Mon Oct 21, 12:00am

Sun Oct 20, 11:10pm

Sun Oct 20, 11:00pm

Sun Oct 20, 10:10pm

Sun Oct 20, 10:00pm

Sun Oct 20, 9:10pm

Sun Oct 20, 9:01pm

Sun Oct 20, 8:10pm

Sun Oct 20, 8:00pm

Sun Oct 20, 7:10pm

Sun Oct 20, 7:01pm

Sun Oct 20, 6:10pm

Sun Oct 20, 6:00pm

Sun Oct 20, 5:10pm

Sun Oct 20, 5:00pm

Sun Oct 20, 4:10pm

Sun Oct 20, 4:00pm

Sun Oct 20, 3:10pm

Sun Oct 20, 3:00pm

Sun Oct 20, 2:10pm

Sun Oct 20, 2:01pm

Sun Oct 20, 1:10pm

Sun Oct 20, 1:01pm

Sun Oct 20, 12:10pm

Sun Oct 20, 12:00pm

Sun Oct 20, 11:10am

Sun Oct 20, 11:00am

Sun Oct 20, 10:10am

Sun Oct 20, 10:00am

Sun Oct 20, 9:10am

Sun Oct 20, 9:00am

Sun Oct 20, 8:10am

Sun Oct 20, 8:00am

Sun Oct 20, 7:10am

Sun Oct 20, 7:00am

Sun Oct 20, 6:10am

Sun Oct 20, 6:00am

Sun Oct 20, 5:10am

Sun Oct 20, 5:00am

Sun Oct 20, 4:10am

Sun Oct 20, 4:00am

Sun Oct 20, 3:10am

Sun Oct 20, 3:00am

Sun Oct 20, 2:10am

Sun Oct 20, 2:00am

Sun Oct 20, 1:10am

Sun Oct 20, 1:00am

Sun Oct 20, 12:10am

Sun Oct 20, 12:00am

Sat Oct 19, 11:10pm

Sat Oct 19, 11:00pm

Sat Oct 19, 10:10pm

Sat Oct 19, 10:00pm

Sat Oct 19, 9:10pm

Sat Oct 19, 9:00pm

Sat Oct 19, 8:10pm

Sat Oct 19, 8:00pm

Sat Oct 19, 7:10pm

Sat Oct 19, 7:00pm

Sat Oct 19, 6:10pm

Sat Oct 19, 6:00pm

Sat Oct 19, 5:10pm

Sat Oct 19, 5:00pm

Sat Oct 19, 4:10pm

Sat Oct 19, 4:00pm

Sat Oct 19, 3:10pm

Sat Oct 19, 3:01pm

Sat Oct 19, 2:10pm

Sat Oct 19, 2:00pm

Sat Oct 19, 1:10pm

Sat Oct 19, 1:01pm

Sat Oct 19, 12:10pm

Sat Oct 19, 12:00pm

Sat Oct 19, 11:10am

Sat Oct 19, 11:01am

Sat Oct 19, 10:10am

Sat Oct 19, 10:00am

Sat Oct 19, 9:10am

Sat Oct 19, 9:00am

Sat Oct 19, 8:10am

Sat Oct 19, 8:00am

Sat Oct 19, 7:10am

Sat Oct 19, 7:00am

Sat Oct 19, 6:10am

Sat Oct 19, 6:00am

Sat Oct 19, 5:10am

Sat Oct 19, 5:00am

Sat Oct 19, 4:10am

Sat Oct 19, 4:00am

Sat Oct 19, 3:10am

Sat Oct 19, 3:00am

Meta data:

ID: d4340cf2-d74b-40a2-800e-6685025c9a55
Link: https://api.weather.gov/products/d4340cf2-d74b-40a2-800e-6685025c9a55